Weather Roundup
Issued by NWS Springfield, MO

Home | Current Version | Previous Version | Text Only | Print | Product List | Glossary On
Versions: 1 2 3 4 5 6 7 8 9 10 11 12 13 14 15 16 17 18 19 20 21 22 23 24 25 26 27 28 29 30 31 32 33 34 35 36 37 38 39 40 41 42 43 44 45 46 47 48 49 50
000
NZUS99 KSGF 272259
HRRSGF

HOURLY WEATHER
NATIONAL WEATHER SERVICE SPRINGFIELD MO
600 PM CDT WED AUG 27 2014

......SGF CWA......

CITY           SKY/WX    TMP DP  RH WIND       PRES   REMARKS
SPRINGFIELD    CLOUDY    85  68  56 N7        30.04F
JOPLIN         MOSUNNY   90  66  45 VRB7      30.01F HX  92
WEST PLAINS    PTSUNNY   87  66  49 SE13G20   30.06R
ROLLA          CLOUDY    75  67  76 N3        30.05S
OSAGE BEACH    CLOUDY    82  68  61 CALM      30.04S
BRANSON        MOSUNNY   99  63  30 SE10      30.03F HX 100

......SURROUNDING SGF CWA......

CITY           SKY/WX    TMP DP  RH WIND       PRES   REMARKS
CHANUTE        MOSUNNY   95  63  34 VRB3      29.98F HX  96
PARSONS        MOSUNNY   95  66  38 VRB5      29.99F HX  98
COFFEYVILLE    MOSUNNY   95  65  37 S8        29.97F HX  97
EMPORIA        PTSUNNY   91  66  43 E6        29.99F HX  93
SILOAM SPRINGS   N/A     90  68  48 SW9       30.02F HX  93
HARRISON AR    MOSUNNY   91  68  46 S10       30.03F HX  95
NEAR YELLVILLE MOSUNNY   90  64  43 SE8G17    30.01F HX  91

......KANSAS AND MISSOURI......

CITY           SKY/WX    TMP DP  RH WIND       PRES   REMARKS
KANSAS CTY INT PTSUNNY   84  70  62 E12       30.04F
DOWNTOWN KC    PTSUNNY   85  71  63 E13       30.02F HX  90
COLUMBIA       PTSUNNY   80  67  64 NE6       30.05F
SEDALIA        MOSUNNY   86  73  65 E8        30.06S HX  93
ST JOSEPH      PTSUNNY   80  72  76 SE6       30.04F
ST LOUIS       TSTM      79  70  74 S7        30.06F
SPIRIT OF STL  CLOUDY    77  67  71 W6        30.06R THUNDER
KIRKSVILLE     PTSUNNY   78  70  76 E3        30.08F
WICHITA        PTSUNNY   90  63  40 SE15      29.98F HX  91
TOPEKA         CLOUDY    85  72  65 NE8       30.02F HX  91
OLATHE         PTSUNNY   83  72  69 E7        30.03F

......TENNESSEE......

CITY           SKY/WX    TMP DP  RH WIND       PRES   REMARKS
MEMPHIS        MOSUNNY   91  62  37 SE7       30.01F HX  91
NASHVILLE      MOSUNNY   89  68  49 SE9       30.03F HX  93

......ARKANSAS.......

CITY           SKY/WX    TMP DP  RH WIND       PRES   REMARKS
FAYETTEVILLE   SUNNY     89  64  43 SE9       30.02F HX  90
FT SMITH       MOSUNNY   94  69  44 E10       29.97F HX  99
LITTLE ROCK    MOSUNNY   90  67  46 SE8       30.00F HX  93

......OKLAHOMA.......

CITY           SKY/WX    TMP DP  RH WIND       PRES   REMARKS
TULSA          PTSUNNY   95  66  38 SE8       29.96F HX  98
PONCA CITY     MOSUNNY   95  63  34 SE13      29.96F HX  96
MCALESTER      SUNNY     92  69  47 VRB6      29.99F HX  97
OKLAHOMA CITY  MOSUNNY   94  63  35 E13       29.98F HX  95

......IOWA............

CITY           SKY/WX    TMP DP  RH WIND       PRES   REMARKS
DES MOINES     CLOUDY    76  67  73 E9        30.07F
QUAD CITIES    CLOUDY    76  62  62 NE8       30.08F

......ILLINOIS........

CITY           SKY/WX    TMP DP  RH WIND       PRES   REMARKS
QUINCY         PTSUNNY   81  71  71 NE6       30.06F
CHICAGO        CLOUDY    73  60  63 NE9       30.12F




USA.gov is the U.S. government's official web portal to all federal, state and local government web resources and services.